星链-31894 (STARLINK-31894 )

导读 | 星芒AI

STARLINK-31894 是 SpaceX Starlink 卫星互联网项目中的一颗低轨卫星,属于其第二代卫星群(v1.5 或 v2 架构)。该卫星于 2023 年发射,旨在为全球用户提供高速、低延迟的宽带互联网服务。它运行在约 550 公里的轨道高度,采用先进通信技术,支持更广泛的覆盖和更高的数据传输速率。Starlink 项目致力于改善偏远地区的网络接入,同时为城市用户提供替代性互联网选择。STARLINK-31894 是 SpaceX 扩大其全球卫星网络、实现全球互联网覆盖目标的重要组成部分。

基本信息
目录编号:
59665
目录名称:
STARLINK-31894
国际标识:
2024-084M
轨道中心:
EARTH
卫星名称:
星链-31894
卫星全名:
星链-31894 (STARLINK-31894 )
卫星状态:
已陨落 最后检测时间 2024-09-19
发射日期:
2024-05-06 UTC
国别 :
美国 (US)
星等 :
--
轨道信息
数据来源 国际轨道数据
星历时间: 2024-09-19T18:19:09+0800
轨道信息已过期414天
半长轴: 6571.491km
偏心率: 0.0006562
轨道倾角: 42.980°
近地点辐角 252.783°
升交点赤经 180.337°
平近点角 240.253°
近地点: 189.043km
远地点: 197.669km
周期: 88.360分钟
每日圈数: 16.296971
详细信息
固有亮度:
5
最大亮度:
1.5
卫星平台:
Starlink v2.0 mini
覆盖范围:
全球
运营商:
太空探索技术公司
运营商所在国:
美国
制造商(研发单位):
太空探索技术公司
制造商所在国:
美国
使用方式:
暂无
卫星简介
星链(Starlink)计划是由太空探索技术公司(SpaceX)提出的一个巨型低轨卫星互联网星座项目,计划在2019年至2024年间在太空搭建由约1.2万颗卫星组成的“星链”网络,其中1584颗将部署在地球上空550千米处的近地轨道,并从2020年开始工作。该卫星仍在工作。